Home > Time Zones > World Clock > Weather > Norway > Oslo > Past weeks

Flag for Norway Weather past 2 weeks in Oslo, Norway

Now
61 °F

Partly sunny.


Feels Like: 61 °F
Forecast: 40 / 51 °F
Wind: 3 mph from Northwest

Location: Oslo-Blindern

Current Time: May 27, 2015 at 2:59:07 PM

Latest Report: May 27, 2015 at 2:00 PM


Visibility: 47 mi

Pressure: 29.82 "Hg

Humidity: 34%

Dew point: 32 °F

Location of OsloLocation

Historic Weather in Oslo — Graph

°F

Oslo temperature yesterday

Maximum temperature yesterday: 57 °F (at 2:00 PM)
Minimum temperature yesterday: 46 °F (at 6:00 AM)
Average temperature yesterday: 50 °F

Past Weeks' High & Low Weather Summary

 TemperatureHumidityPressure
High63 °F (May 23, 2:00 PM)98% (May 13, 1:00 AM)30.03 "Hg (May 13, 1:00 AM)
Low35 °F (May 15, 4:00 AM)25% (May 15, 4:00 PM)29.44 "Hg (May 19, 11:00 AM)
Average49 °F68%29.78 "Hg
* Reported May 12 1:00 PM — May 27 1:00 PM, Oslo, Weather by CustomWeather, © 2015

Note: Actual official high and low records may vary slightly from our data, if they occured in-between our weather recording intervals... More about our weather records

Advertising

Oslo weather history for previous 24 hours

 ConditionsComfort  
Time TempWeatherWind HumidityBarometerVisibility
1:00 PM
Wed, May 27
60 °FRefreshingly cool.3 mph38%29.83 "HgN/A
12:00 PM59 °FRefreshingly cool.2 mph39%29.83 "HgN/A
11:00 AM59 °FPartly sunny.2 mph44%29.84 "Hg47 mi
10:00 AM57 °FRefreshingly cool.5 mph42%29.84 "HgN/A
9:00 AM56 °FRefreshingly cool.3 mph46%29.83 "HgN/A
8:00 AM51 °FPartly sunny.3 mph54%29.84 "Hg43 mi
7:00 AM50 °FCool.1 mph62%29.83 "HgN/A
6:00 AM47 °FCool.1 mph61%29.83 "HgN/A
4:00 AM47 °FCool.2 mph63%29.81 "HgN/A
3:00 AM46 °FCool.2 mph71%29.80 "HgN/A
2:00 AM46 °FPassing clouds.2 mph81%29.80 "Hg43 mi
1:00 AM47 °FCool.2 mph83%29.79 "HgN/A
12:00 AM49 °FCool.1 mph84%29.79 "HgN/A
10:00 PM
Tue, May 26
51 °FCool.2 mph76%29.79 "HgN/A
9:00 PM53 °FCool.2 mph68%29.78 "HgN/A
5:00 PM57 °FRefreshingly cool.5 mph49%29.76 "HgN/A
4:00 PM56 °FRefreshingly cool.5 mph56%29.77 "HgN/A
3:00 PM56 °FRefreshingly cool.3 mph52%29.76 "HgN/A
2:00 PM57 °FPartly sunny.5 mph51%29.76 "Hg43 mi
Weather by CustomWeather, © 2015

See weather overviewHow to use our weather pages